Forside
METAR-TAF:

METAR-TAF

Lufthavne :

Princeton Municipal Airport

Princeton, Minnesota, USA

Breddekreds: 45-33N, længdekreds: 093-36W, højde: 298 m

Aktuelle vejr

Denne rapport blev lavet for 9 minutter siden, kl. 01:56 UTC
Vind stille
Temperatur 14°C
Fugtighed 55%
Tryk 1014 hPa
Sigt: 16.1 km
skyfri

METAR: KPNM 220156Z AUTO 00000KT 10SM CLR 14/05 A2993 RMK AO2

Tid: 21:05 (02:05 UTC)


TAF: fraværende

Vejrobservationer og prognoser fra mere end 4000 lufthavne (METAR og TAF).

De gule og røde prikker repræsenterer de meteorologiske stationer.

Flyt musen over at se navnet på stationen.

Så klik over at se vejr observationer og prognoser.

At skifte det kort: Klik på de grønne knapper med et sort kors for at zoome ind; på den grønne knap med en bindestreg for at zoome ud; eller på de grønne pile for tilstødende kort.


METAR-TAF: